STRAND-1

Last updated on Thu Oct 30 2025 00:03:10 GMT+0000 (Coordinated Universal Time)

1 39090U 13009E 25302.45401368 .00000560 00000+0 20331-3 0 9999 2 39090 98.3842 123.4795 0008337 193.7875 166.3086 14.36946841663921
UTC large
Height (km)
Speed (km/s)
/
Latitude / Longitude
Inclination (degrees)
Orbital Period (minutes)
Azimuth
Elevation
Range (km)
Doppler Factor

Next 0 passes for location: London (51.5072 / 0.1276)

Sorry there are no passes over London.